Time,TemperatureF,DewpointF,PressureIn,WindDirection,WindDirectionDegrees,WindSpeedMPH,WindSpeedGustMPH,Humidity,HourlyPrecipIn,Conditions,Clouds,dailyrainin,SoftwareType,DateUTC
2013-06-24 00:02:00,58.0,56.0,29.82,NE,51,0.0,7.0,92,0.00,,,0.00,,2013-06-24 07:02:00,
2013-06-24 00:12:00,58.0,56.0,29.82,NE,51,0.0,7.0,92,0.00,,,0.00,,2013-06-24 07:12:00,
2013-06-24 00:25:00,58.0,55.0,29.82,NE,38,0.0,2.0,91,0.00,,,0.00,,2013-06-24 07:25:00,
2013-06-24 00:44:00,58.0,55.0,29.83,NE,38,0.0,1.0,91,0.00,,,0.00,,2013-06-24 07:44:00,
2013-06-24 00:55:00,57.0,54.0,29.82,NE,38,0.0,1.0,90,0.00,,,0.00,,2013-06-24 07:55:00,
2013-06-24 01:02:00,57.0,54.0,29.82,ENE,60,1.0,4.0,91,0.00,,,0.00,,2013-06-24 08:02:00,
2013-06-24 01:12:00,57.0,54.0,29.82,ENE,60,1.0,4.0,91,0.00,,,0.00,,2013-06-24 08:12:00,
2013-06-24 01:22:00,58.0,56.0,29.82,NE,36,3.0,8.0,92,0.00,,,0.00,,2013-06-24 08:22:00,
2013-06-24 01:33:00,58.0,56.0,29.82,NE,36,3.0,8.0,92,0.00,,,0.00,,2013-06-24 08:33:00,
2013-06-24 01:43:00,58.0,56.0,29.82,East,86,0.0,7.0,93,0.00,,,0.00,,2013-06-24 08:43:00,
2013-06-24 01:54:00,58.0,56.0,29.83,ENE,59,0.0,1.0,93,0.00,,,0.00,,2013-06-24 08:54:00,
2013-06-24 02:12:00,58.0,56.0,29.82,NE,53,0.0,3.0,93,0.00,,,0.00,,2013-06-24 09:12:00,
2013-06-24 02:23:00,59.0,57.0,29.82,ENE,57,0.0,2.0,92,0.00,,,0.00,,2013-06-24 09:23:00,
2013-06-24 02:33:00,59.0,57.0,29.83,NE,42,1.0,5.0,92,0.00,,,0.00,,2013-06-24 09:33:00,
2013-06-24 02:57:00,59.0,57.0,29.82,ENE,58,0.0,5.0,92,0.00,,,0.00,,2013-06-24 09:57:00,
2013-06-24 03:22:00,58.0,56.0,29.83,NNE,25,1.0,7.0,93,0.00,,,0.00,,2013-06-24 10:22:00,
2013-06-24 03:33:00,58.0,56.0,29.83,NNE,25,1.0,7.0,93,0.00,,,0.00,,2013-06-24 10:33:00,
2013-06-24 03:44:00,58.0,56.0,29.83,NE,42,0.0,7.0,93,0.00,,,0.00,,2013-06-24 10:44:00,
2013-06-24 04:02:00,59.0,57.0,29.83,NE,54,0.0,1.0,92,0.00,,,0.00,,2013-06-24 11:02:00,
2013-06-24 04:12:00,59.0,57.0,29.83,NE,54,0.0,1.0,92,0.00,,,0.00,,2013-06-24 11:12:00,
2013-06-24 04:24:00,59.0,57.0,29.83,ESE,103,0.0,2.0,92,0.00,,,0.00,,2013-06-24 11:24:00,
2013-06-24 04:33:00,59.0,57.0,29.83,ESE,102,0.0,1.0,92,0.00,,,0.00,,2013-06-24 11:33:00,
2013-06-24 04:43:00,59.0,57.0,29.83,ESE,102,0.0,1.0,92,0.00,,,0.00,,2013-06-24 11:43:00,
2013-06-24 04:56:00,59.0,57.0,29.84,East,101,0.0,1.0,93,0.00,,,0.00,,2013-06-24 11:56:00,
2013-06-24 05:12:00,59.0,57.0,29.84,East,98,0.0,1.0,93,0.00,,,0.00,,2013-06-24 12:12:00,
2013-06-24 05:23:00,59.0,57.0,29.85,East,82,0.0,1.0,93,0.00,,,0.00,,2013-06-24 12:23:00,
2013-06-24 05:34:00,59.0,57.0,29.85,ENE,60,0.0,1.0,93,0.00,,,0.00,,2013-06-24 12:34:00,
2013-06-24 05:54:00,59.0,57.0,29.85,ENE,60,0.0,1.0,93,0.00,,,0.00,,2013-06-24 12:54:00,
2013-06-24 06:02:00,59.0,57.0,29.85,ENE,60,0.0,1.0,93,0.00,,,0.00,,2013-06-24 13:02:00,
2013-06-24 06:32:00,59.0,57.0,29.86,ENE,60,0.0,0.0,93,0.00,,,0.00,,2013-06-24 13:32:00,
2013-06-24 06:42:00,59.0,57.0,29.86,ENE,60,0.0,0.0,93,0.00,,,0.00,,2013-06-24 13:42:00,
2013-06-24 06:57:00,59.0,57.0,29.87,ENE,60,0.0,0.0,93,0.00,,,0.00,,2013-06-24 13:57:00,
2013-06-24 07:11:00,59.0,57.0,29.88,ENE,60,0.0,0.0,93,0.00,,,0.00,,2013-06-24 14:11:00,
2013-06-24 07:43:00,60.0,58.0,29.88,ENE,60,0.0,0.0,93,0.00,,,0.00,,2013-06-24 14:43:00,
2013-06-24 07:57:00,60.0,58.0,29.89,East,79,0.0,1.0,92,0.00,,,0.00,,2013-06-24 14:57:00,
2013-06-24 08:12:00,61.0,58.0,29.90,West,270,0.0,0.0,91,0.00,,,0.00,,2013-06-24 15:12:00,
2013-06-24 08:24:00,62.0,59.0,29.91,WNW,285,0.0,0.0,90,0.00,,,0.00,,2013-06-24 15:24:00,
2013-06-24 08:34:00,62.0,59.0,29.91,NNE,28,0.0,1.0,89,0.00,,,0.00,,2013-06-24 15:34:00,
2013-06-24 08:43:00,62.0,59.0,29.91,NNE,28,0.0,1.0,89,0.00,,,0.00,,2013-06-24 15:43:00,
2013-06-24 08:55:00,63.0,59.0,29.91,WNW,284,0.0,1.0,87,0.00,,,0.00,,2013-06-24 15:55:00,
2013-06-24 09:02:00,63.0,59.0,29.92,WNW,282,0.0,0.0,87,0.00,,,0.00,,2013-06-24 16:02:00,
2013-06-24 09:11:00,63.0,59.0,29.92,WNW,282,0.0,0.0,87,0.00,,,0.00,,2013-06-24 16:11:00,
2013-06-24 09:23:00,64.0,60.0,29.93,SW,232,0.0,1.0,86,0.00,,,0.00,,2013-06-24 16:23:00,
2013-06-24 09:43:00,64.0,59.0,29.93,East,92,0.0,1.0,85,0.00,,,0.00,,2013-06-24 16:43:00,
2013-06-24 09:55:00,63.0,58.0,29.93,SE,138,0.0,1.0,85,0.00,,,0.00,,2013-06-24 16:55:00,
2013-06-24 10:02:00,63.0,59.0,29.93,SE,144,0.0,1.0,86,0.00,,,0.00,,2013-06-24 17:02:00,
2013-06-24 10:12:00,63.0,59.0,29.93,SE,144,0.0,1.0,86,0.00,,,0.00,,2013-06-24 17:12:00,
2013-06-24 10:23:00,64.0,59.0,29.93,ESE,123,0.0,4.0,84,0.00,,,0.00,,2013-06-24 17:23:00,
2013-06-24 10:33:00,64.0,59.0,29.93,ESE,123,0.0,4.0,84,0.00,,,0.00,,2013-06-24 17:33:00,
2013-06-24 10:43:00,64.0,59.0,29.93,SE,138,0.0,3.0,84,0.00,,,0.00,,2013-06-24 17:43:00,
2013-06-24 10:56:00,64.0,59.0,29.93,ESE,116,0.0,3.0,84,0.00,,,0.00,,2013-06-24 17:56:00,
2013-06-24 11:01:00,64.0,59.0,29.93,ENE,69,0.0,3.0,84,0.00,,,0.00,,2013-06-24 18:01:00,
2013-06-24 11:12:00,64.0,59.0,29.93,ENE,69,0.0,3.0,84,0.00,,,0.00,,2013-06-24 18:12:00,
2013-06-24 11:23:00,64.0,59.0,29.93,SSE,150,0.0,4.0,83,0.00,,,0.00,,2013-06-24 18:23:00,
2013-06-24 11:33:00,65.0,59.0,29.93,SSE,150,0.0,1.0,82,0.00,,,0.00,,2013-06-24 18:33:00,
2013-06-24 12:02:00,66.0,59.0,29.94,SSE,165,0.0,1.0,78,0.00,,,0.00,,2013-06-24 19:02:00,
2013-06-24 12:12:00,66.0,59.0,29.94,SSE,165,0.0,1.0,78,0.00,,,0.00,,2013-06-24 19:12:00,
2013-06-24 12:24:00,68.0,61.0,29.94,SE,145,0.0,2.0,78,0.00,,,0.00,,2013-06-24 19:24:00,
2013-06-24 12:34:00,66.0,60.0,29.94,South,187,0.0,4.0,80,0.00,,,0.00,,2013-06-24 19:34:00,
2013-06-24 12:42:00,66.0,60.0,29.94,South,187,0.0,4.0,80,0.00,,,0.00,,2013-06-24 19:42:00,
2013-06-24 12:54:00,66.0,60.0,29.94,South,184,0.0,1.0,81,0.00,,,0.00,,2013-06-24 19:54:00,
2013-06-24 13:02:00,66.0,60.0,29.94,South,188,0.0,2.0,81,0.00,,,0.00,,2013-06-24 20:02:00,
2013-06-24 13:11:00,66.0,60.0,29.94,South,188,0.0,2.0,81,0.00,,,0.00,,2013-06-24 20:11:00,
2013-06-24 13:33:00,66.0,60.0,29.95,South,184,0.0,2.0,82,0.00,,,0.00,,2013-06-24 20:33:00,
2013-06-24 13:43:00,65.0,60.0,29.95,South,184,0.0,1.0,84,0.00,,,0.00,,2013-06-24 20:43:00,
2013-06-24 13:55:00,65.0,60.0,29.94,South,184,0.0,1.0,84,0.00,,,0.00,,2013-06-24 20:55:00,
2013-06-24 14:11:00,65.0,60.0,29.94,South,184,0.0,1.0,85,0.00,,,0.00,,2013-06-24 21:11:00,
2013-06-24 14:23:00,66.0,61.0,29.94,South,184,0.0,1.0,83,0.00,,,0.00,,2013-06-24 21:23:00,
2013-06-24 14:54:00,67.0,61.0,29.94,South,188,0.0,3.0,81,0.00,,,0.00,,2013-06-24 21:54:00,
2013-06-24 15:01:00,67.0,60.0,29.93,South,184,0.0,4.0,79,0.00,,,0.00,,2013-06-24 22:01:00,
2013-06-24 15:33:00,68.0,61.0,29.93,South,187,0.0,2.0,77,0.00,,,0.00,,2013-06-24 22:33:00,
2013-06-24 15:55:00,67.0,60.0,29.92,South,186,0.0,2.0,79,0.00,,,0.00,,2013-06-24 22:55:00,
2013-06-24 16:02:00,67.0,60.0,29.92,South,186,0.0,2.0,79,0.00,,,0.00,,2013-06-24 23:02:00,
2013-06-24 16:22:00,67.0,60.0,29.92,South,184,0.0,2.0,79,0.00,,,0.00,,2013-06-24 23:22:00,
2013-06-24 16:43:00,68.0,61.0,29.92,South,190,0.0,3.0,78,0.00,,,0.00,,2013-06-24 23:43:00,
2013-06-24 16:54:00,68.0,61.0,29.92,South,190,0.0,1.0,77,0.00,,,0.00,,2013-06-24 23:54:00,
2013-06-24 17:22:00,67.0,60.0,29.91,SSW,202,0.0,1.0,78,0.00,,,0.00,,2013-06-25 00:22:00,
2013-06-24 17:44:00,67.0,61.0,29.91,SSW,213,0.0,1.0,81,0.00,,,0.00,,2013-06-25 00:44:00,
2013-06-24 17:55:00,67.0,61.0,29.91,SW,232,0.0,1.0,81,0.00,,,0.00,,2013-06-25 00:55:00,
2013-06-24 18:02:00,67.0,61.0,29.91,SW,232,0.0,2.0,81,0.00,,,0.00,,2013-06-25 01:02:00,
2013-06-24 18:12:00,67.0,61.0,29.91,SW,232,0.0,2.0,81,0.00,,,0.00,,2013-06-25 01:12:00,
2013-06-24 18:22:00,67.0,61.0,29.91,WSW,247,0.0,3.0,82,0.00,,,0.00,,2013-06-25 01:22:00,
2013-06-24 18:33:00,67.0,61.0,29.91,SW,218,0.0,1.0,81,0.00,,,0.00,,2013-06-25 01:33:00,
2013-06-24 18:43:00,67.0,61.0,29.91,SW,218,0.0,1.0,81,0.00,,,0.00,,2013-06-25 01:43:00,
2013-06-24 18:55:00,66.0,60.0,29.90,SW,229,0.0,2.0,82,0.00,,,0.00,,2013-06-25 01:55:00,
2013-06-24 19:02:00,66.0,61.0,29.91,SW,234,0.0,1.0,83,0.00,,,0.00,,2013-06-25 02:02:00,
2013-06-24 19:11:00,66.0,61.0,29.91,SW,234,0.0,1.0,83,0.00,,,0.00,,2013-06-25 02:11:00,
2013-06-24 19:23:00,65.0,60.0,29.91,SW,232,0.0,2.0,84,0.00,,,0.00,,2013-06-25 02:23:00,
2013-06-24 19:33:00,63.0,59.0,29.91,West,277,0.0,2.0,87,0.00,,,0.00,,2013-06-25 02:33:00,
2013-06-24 19:43:00,63.0,59.0,29.91,West,277,0.0,2.0,87,0.00,,,0.00,,2013-06-25 02:43:00,
2013-06-24 19:56:00,63.0,60.0,29.91,WSW,243,0.0,1.0,89,0.00,,,0.00,,2013-06-25 02:56:00,
2013-06-24 20:02:00,62.0,59.0,29.91,WSW,242,0.0,1.0,90,0.00,,,0.00,,2013-06-25 03:02:00,
2013-06-24 20:12:00,62.0,59.0,29.91,WSW,242,0.0,1.0,90,0.00,,,0.00,,2013-06-25 03:12:00,
2013-06-24 20:34:00,61.0,59.0,29.91,WSW,250,0.0,2.0,92,0.00,,,0.00,,2013-06-25 03:34:00,
2013-06-24 20:44:00,61.0,59.0,29.91,WSW,250,0.0,2.0,92,0.00,,,0.00,,2013-06-25 03:44:00,
2013-06-24 21:00:00,61.0,59.0,29.91,West,265,0.0,2.0,92,0.00,,,0.00,,2013-06-25 04:00:00,
2013-06-24 21:01:00,61.0,59.0,29.91,West,263,0.0,1.0,93,0.00,,,0.00,,2013-06-25 04:01:00,
2013-06-24 21:11:00,61.0,59.0,29.91,West,263,0.0,1.0,93,0.00,,,0.00,,2013-06-25 04:11:00,
2013-06-24 21:22:00,61.0,59.0,29.92,WSW,258,0.0,2.0,94,0.00,,,0.00,,2013-06-25 04:22:00,
2013-06-24 21:33:00,60.0,58.0,29.92,WSW,257,0.0,1.0,94,0.00,,,0.00,,2013-06-25 04:33:00,
2013-06-24 21:42:00,60.0,58.0,29.92,WSW,257,0.0,1.0,94,0.00,,,0.00,,2013-06-25 04:42:00,
2013-06-24 21:52:00,60.0,58.0,29.92,WSW,257,0.0,1.0,94,0.00,,,0.00,,2013-06-25 04:52:00,
2013-06-24 22:01:00,60.0,58.0,29.93,WSW,257,0.0,0.0,94,0.00,,,0.00,,2013-06-25 05:01:00,
2013-06-24 22:11:00,60.0,58.0,29.93,WSW,257,0.0,0.0,94,0.00,,,0.00,,2013-06-25 05:11:00,
2013-06-24 22:21:00,60.0,59.0,29.93,WSW,257,0.0,0.0,95,0.00,,,0.00,,2013-06-25 05:21:00,
2013-06-24 22:32:00,60.0,59.0,29.93,WSW,257,0.0,1.0,95,0.00,,,0.00,,2013-06-25 05:32:00,
2013-06-24 22:44:00,60.0,59.0,29.93,WSW,257,0.0,1.0,95,0.00,,,0.00,,2013-06-25 05:44:00,
2013-06-24 22:52:00,60.0,58.0,29.93,WSW,257,0.0,0.0,94,0.00,,,0.00,,2013-06-25 05:52:00,
2013-06-24 23:01:00,59.0,57.0,29.93,WSW,257,0.0,1.0,94,0.00,,,0.00,,2013-06-25 06:01:00,
2013-06-24 23:11:00,59.0,57.0,29.93,WSW,257,0.0,1.0,94,0.00,,,0.00,,2013-06-25 06:11:00,
2013-06-24 23:21:00,60.0,58.0,29.93,WSW,257,0.0,1.0,92,0.00,,,0.00,,2013-06-25 06:21:00,
2013-06-24 23:33:00,60.0,58.0,29.93,WSW,257,0.0,1.0,92,0.00,,,0.00,,2013-06-25 06:33:00,
2013-06-24 23:43:00,60.0,57.0,29.92,WSW,257,0.0,1.0,90,0.00,,,0.00,,2013-06-25 06:43:00,
2013-06-24 23:52:00,61.0,57.0,29.92,WSW,257,0.0,0.0,88,0.00,,,0.00,,2013-06-25 06:52:00,